Hourly Weather Roundup
Issued by NWS Central Illinois

Home | Current Version | Previous Version | Text Only | Print | Product List | Glossary On
Versions: 1 2 3 4 5 6 7 8 9 10 11 12 13 14 15 16 17 18 19 20 21 22 23 24 25 26 27 28 29 30 31 32 33 34 35 36 37 38 39 40 41 42 43 44 45 46 47 48 49 50
000
NZUS43 KILX 011110
HWRILX

AREA WEATHER ROUNDUP
NATIONAL WEATHER SERVICE, LINCOLN IL
600 AM CDT SUN MAY 01 2016


CITY           SKY/WX    TMP DP  RH WIND       PRES   REMARKS
BLOOMINGTON    FOG       49  49 100 NE8       29.92R VSB 1/2
CHAMPAIGN      FOG       52  52 100 N7        29.88S VSB 1/4
DANVILLE       FOG       53  53  99 N5        29.86S VSB<1/4
DECATUR        FOG       55  54  96 NW6       29.88R VSB 1/2
EFFINGHAM      CLOUDY    54  54 100 CALM      29.89R FOG
FLORA          CLOUDY    61  57  87 SW9       29.87R
GALESBURG      FOG       46  46  99 NE10      29.93R VSB 1
JACKSONVILLE   FOG       53  52  97 N9        29.88S VSB 1
LACON          CLOUDY    46  46  97 CALM      29.92R FOG
LAWRENCEVILLE  CLOUDY    58  57  97 SE5         N/A
LITCHFIELD     CLEAR     52  50  95 CALM      29.87R
$$


CITY           SKY/WX    TMP DP  RH WIND       PRES   REMARKS
LINCOLN        FOG       51  51 100 N6        29.89S VSB 1
MACOMB         CLOUDY    47  47 100 N9        29.93S FOG
MATTOON        CLOUDY    54  51  90 CALM      29.86S
MT CARMEL AP   NOT AVBL
OLNEY-NOBLE AP CLOUDY    59  55  88 W6        29.87R
PARIS          CLOUDY    57  55  91 NW3       29.87S
PEORIA         CLOUDY    48  47  96 NE9       29.92R FOG
PONTIAC        CLOUDY    49  49 100 NE7       29.92R FOG
RANTOUL        CLOUDY    52  52  99 NE5       29.89R FOG
ROBINSON       CLOUDY    56  55  98 CALM      29.87R
SPRINGFIELD    FOG       53  52  96 N7        29.88S VSB 1
TAYLORVILLE    FOG       54  54 100 N6        29.87S VSB 1/4
$$

...REGIONAL REPORTS...


CITY           SKY/WX    TMP DP  RH WIND       PRES   REMARKS
CHICAGO O`HARE FOG       43  43 100 NE13      29.93R VSB 3/4
KANKAKEE       CLOUDY    48  47  97 NE7       29.91R
MOLINE         CLOUDY    48  45  89 NE8       29.93S FOG
MOUNT STERLING CLOUDY    49  49 100 NE7       29.90R FOG
MOUNT VERNON   CLOUDY    57  54  88 NW3       29.87R
PITTSFIELD     FOG       55  55 100 N6        29.89S VSB 1/4
QUINCY         CLOUDY    50  49  96 NE8       29.90R FOG
ROCKFORD       CLOUDY    46  44  93 NE14      29.98R
$$


CITY           SKY/WX    TMP DP  RH WIND       PRES   REMARKS
BURLINGTON     CLOUDY    47  47 100 NE13      29.91S FOG
CEDAR RAPIDS   CLOUDY    45  45 100 NE12      29.95S FOG
DES MOINES     DRIZZLE   45  42  89 NE9       29.96S
KIRKSVILLE     CLOUDY    48  46  93 NE9       29.91S FOG
OTTUMWA        CLOUDY    45  44  97 NE9       29.94R
ST LOUIS       PTCLDY    59  55  87 S5        29.87R
$$


CITY           SKY/WX    TMP DP  RH WIND       PRES   REMARKS
TERRE HAUTE    CLOUDY    57  54  89 CALM      29.86S
EVANSVILLE     PTCLDY    56  54  93 CALM      29.89R
INDIANAPOLIS   CLOUDY    61  58  90 CALM      29.85S
LAFAYETTE      FOG       52  52 100 NE3       29.88R VSB 1/4
MADISON        DRIZZLE   42  40  92 NE12G21   30.01R FOG
MILWAUKEE      LGT RAIN  42  40  92 N15G23    29.99R FOG     WCI  34
$$





USA.gov is the U.S. government's official web portal to all federal, state and local government web resources and services.